Location: Boiro
(42.6475°N, 8.8834°W)
Time: 03:32:09
(UTC+02:00)

LINGQIAO VIDEO B - Visible Passes

Search period start: 29 June 2022 00:00
Search period end: 09 July 2022 00:00
Orbit: 637 x 661 km, 97.8° (Epoch: 28 June)

Date Brightness Start Highest point End Pass type
(mag) Time Alt. Az. Time Alt. Az. Time Alt. Az.
29 Jun ? 23:50:53 10° SW 23:54:04 19° W 23:57:16 10° NW visible
01 Jul ? 23:05:19 10° S 23:09:43 53° W 23:14:10 10° NNW visible
02 Jul ? 23:32:17 10° SSW 23:36:09 28° W 23:40:05 10° NW visible
04 Jul ? 00:00:02 10° SW 00:02:42 15° W 00:05:23 10° NW visible
04 Jul ? 22:47:25 10° S 22:51:55 81° WSW 22:56:30 10° NNW visible
05 Jul ? 23:14:00 10° S 23:18:17 42° W 23:22:37 10° NNW visible
06 Jul ? 23:41:11 10° SW 23:44:45 23° W 23:48:23 10° NW visible
08 Jul ? 00:09:28 10° WSW 00:11:20 12° W 00:13:12 10° WNW visible
08 Jul ? 22:55:58 10° S 23:00:28 65° W 23:05:01 10° NNW visible
